LIC2510 GCTS-LEMD

Flight info

Callsign LIC2510
Flight time 2h 15m
Altitude 43000
Route VASTO UN858 AKUDA/N0493F470 DCT PESAS N858 PARKA Z165 SOTUK
Aircraft C750/M-SBDE3FGHRWXY/S

Departure

Time 2026-05-07 10:52
Airport Tenerife Sur Airport (GCTS)

Arrival

Time 2026-05-07 13:08
Airport Adolfo Suárez Madrid–Barajas Airport (LEMD)
Time Latitude Longitude Altitude Speed Heading
2026-05-07 10:38 28.04502 -16.57849 219 ft 0 kts 338°
2026-05-07 10:46 28.04506 -16.57853 220 ft 1 kts 316°
2026-05-07 10:46 28.04515 -16.57863 220 ft 3 kts 317°
2026-05-07 10:46 28.04536 -16.57900 221 ft 5 kts 279°
2026-05-07 10:47 28.04505 -16.57918 220 ft 8 kts 172°
2026-05-07 10:47 28.04438 -16.57922 219 ft 7 kts 208°
2026-05-07 10:47 28.04428 -16.57929 219 ft 0 kts 213°
2026-05-07 10:49 28.04400 -16.57954 219 ft 12 kts 224°
2026-05-07 10:49 28.04348 -16.58053 219 ft 16 kts 242°
2026-05-07 10:50 28.04306 -16.58173 219 ft 17 kts 250°
2026-05-07 10:50 28.04255 -16.58299 219 ft 17 kts 242°
2026-05-07 10:50 28.04220 -16.58423 219 ft 16 kts 251°
2026-05-07 10:50 28.04188 -16.58540 219 ft 15 kts 246°
2026-05-07 10:51 28.04156 -16.58652 216 ft 16 kts 249°
2026-05-07 10:51 28.04088 -16.58776 211 ft 19 kts 217°
2026-05-07 10:51 28.04025 -16.58758 202 ft 16 kts 144°
2026-05-07 10:51 28.03990 -16.58602 193 ft 15 kts 84°
2026-05-07 10:52 28.04029 -16.58459 195 ft 33 kts 71°
2026-05-07 10:52 28.04234 -16.57862 203 ft 127 kts 69°
2026-05-07 10:52 28.04434 -16.57209 447 ft 139 kts 75°
2026-05-07 10:52 28.04805 -16.56065 976 ft 160 kts 69°
2026-05-07 10:53 28.05254 -16.54918 1770 ft 162 kts 65°
2026-05-07 10:53 28.05674 -16.53745 2573 ft 163 kts 66°
2026-05-07 10:53 28.06121 -16.52462 3046 ft 189 kts 67°
2026-05-07 10:53 28.06643 -16.50955 3470 ft 216 kts 67°
2026-05-07 10:54 28.07200 -16.49341 4212 ft 222 kts 67°
2026-05-07 10:54 28.07774 -16.47685 4976 ft 230 kts 66°
2026-05-07 10:54 28.08362 -16.45992 5657 ft 236 kts 67°
2026-05-07 10:54 28.08748 -16.44159 6263 ft 250 kts 83°
2026-05-07 10:55 28.08874 -16.42084 6747 ft 278 kts 86°
2026-05-07 10:55 28.09010 -16.39827 7515 ft 292 kts 84°
2026-05-07 10:55 28.09188 -16.37539 8698 ft 292 kts 83°
2026-05-07 10:55 28.09368 -16.35233 9774 ft 298 kts 83°
2026-05-07 10:56 28.09541 -16.32842 10428 ft 314 kts 84°
2026-05-07 10:56 28.09724 -16.30274 10685 ft 341 kts 84°
2026-05-07 10:56 28.09926 -16.27488 10820 ft 369 kts 84°
2026-05-07 10:56 28.10140 -16.24559 11456 ft 375 kts 84°
2026-05-07 10:57 28.10352 -16.21609 12263 ft 378 kts 85°
2026-05-07 10:57 28.10567 -16.18620 12948 ft 384 kts 85°
2026-05-07 10:57 28.10785 -16.15584 13648 ft 390 kts 85°
2026-05-07 10:57 28.11007 -16.12499 14253 ft 396 kts 85°
2026-05-07 10:58 28.11229 -16.09374 14872 ft 400 kts 85°
2026-05-07 10:58 28.11454 -16.06213 15488 ft 405 kts 85°
2026-05-07 10:58 28.11676 -16.03014 16111 ft 409 kts 86°
2026-05-07 10:58 28.11598 -15.99773 16655 ft 414 kts 96°
2026-05-07 10:59 28.11346 -15.96515 17371 ft 417 kts 97°
2026-05-07 10:59 28.11111 -15.93229 18042 ft 422 kts 96°
2026-05-07 10:59 28.10910 -15.89885 18684 ft 427 kts 96°
2026-05-07 10:59 28.10699 -15.86522 19315 ft 431 kts 96°
2026-05-07 11:00 28.10462 -15.83121 19953 ft 436 kts 96°
2026-05-07 11:00 28.10222 -15.79683 20605 ft 440 kts 96°
2026-05-07 11:00 28.09993 -15.76206 21257 ft 445 kts 96°
2026-05-07 11:00 28.09762 -15.72695 21896 ft 449 kts 96°
2026-05-07 11:01 28.09519 -15.69148 22542 ft 454 kts 96°
2026-05-07 11:01 28.09271 -15.65564 23216 ft 459 kts 96°
2026-05-07 11:01 28.09025 -15.61945 23832 ft 463 kts 96°
2026-05-07 11:01 28.08777 -15.58296 24378 ft 467 kts 96°
2026-05-07 11:02 28.08570 -15.54623 24903 ft 471 kts 92°
2026-05-07 11:02 28.08840 -15.50913 25426 ft 475 kts 81°
2026-05-07 11:02 28.09639 -15.47273 25958 ft 479 kts 70°
2026-05-07 11:02 28.10965 -15.43813 26499 ft 480 kts 60°
2026-05-07 11:03 28.12777 -15.40641 27052 ft 480 kts 50°
2026-05-07 11:03 28.15023 -15.37854 27601 ft 479 kts 40°
2026-05-07 11:03 28.17637 -15.35529 28154 ft 477 kts 30°
2026-05-07 11:03 28.20419 -15.33467 28689 ft 479 kts 29°
2026-05-07 11:04 28.23179 -15.31416 29230 ft 482 kts 29°
2026-05-07 11:04 28.25990 -15.29314 29746 ft 485 kts 29°
2026-05-07 11:04 28.28816 -15.27208 30227 ft 488 kts 29°
2026-05-07 11:04 28.31664 -15.25091 30695 ft 490 kts 29°
2026-05-07 11:05 28.34523 -15.22960 31184 ft 491 kts 29°
2026-05-07 11:05 28.37363 -15.20834 31917 ft 487 kts 28°
2026-05-07 11:05 28.40178 -15.18730 32641 ft 483 kts 28°
2026-05-07 11:05 28.42983 -15.16638 33305 ft 481 kts 28°
2026-05-07 11:06 28.45768 -15.14557 34026 ft 478 kts 28°
2026-05-07 11:06 28.48528 -15.12490 34642 ft 475 kts 27°
2026-05-07 11:06 28.51279 -15.10428 35252 ft 472 kts 27°
2026-05-07 11:06 28.54017 -15.08379 35867 ft 470 kts 27°
2026-05-07 11:07 28.56741 -15.06337 36481 ft 468 kts 27°
2026-05-07 11:07 28.59452 -15.04304 37112 ft 465 kts 27°
2026-05-07 11:07 28.62148 -15.02280 37757 ft 463 kts 27°
2026-05-07 11:07 28.64830 -15.00265 38395 ft 461 kts 26°
2026-05-07 11:08 28.67501 -14.98259 38956 ft 459 kts 26°
2026-05-07 11:08 28.70169 -14.96254 39366 ft 460 kts 26°
2026-05-07 11:08 28.72849 -14.94240 39679 ft 464 kts 27°
2026-05-07 11:08 28.75547 -14.92207 40065 ft 466 kts 27°
2026-05-07 11:09 28.78252 -14.90166 40450 ft 467 kts 27°
2026-05-07 11:09 28.80968 -14.88120 40825 ft 469 kts 27°
2026-05-07 11:09 28.83693 -14.86066 41202 ft 470 kts 27°
2026-05-07 11:09 28.86390 -14.84029 41573 ft 472 kts 27°
2026-05-07 11:10 28.89169 -14.81929 41949 ft 473 kts 27°
2026-05-07 11:10 28.91913 -14.79856 42309 ft 475 kts 27°
2026-05-07 11:10 28.94635 -14.77797 42660 ft 476 kts 27°
2026-05-07 11:10 28.97397 -14.75706 43012 ft 476 kts 27°
2026-05-07 11:11 29.03017 -14.71456 43062 ft 494 kts 28°
2026-05-07 11:11 29.08836 -14.67037 43075 ft 510 kts 28°
2026-05-07 11:12 29.14831 -14.62484 43072 ft 523 kts 28°
2026-05-07 11:12 29.20950 -14.57827 43070 ft 532 kts 28°
2026-05-07 11:13 29.27108 -14.53134 43069 ft 533 kts 28°
2026-05-07 11:13 29.33300 -14.48410 43060 ft 534 kts 28°
2026-05-07 11:14 29.39488 -14.43682 43062 ft 534 kts 28°
2026-05-07 11:14 29.45669 -14.38952 43062 ft 534 kts 28°
2026-05-07 11:15 29.51850 -14.34214 43060 ft 534 kts 28°
2026-05-07 11:15 29.58030 -14.29471 43059 ft 534 kts 28°
2026-05-07 11:16 29.64206 -14.24724 43057 ft 536 kts 28°
2026-05-07 11:16 29.70403 -14.19953 43063 ft 535 kts 28°
2026-05-07 11:17 29.76587 -14.15185 43066 ft 535 kts 28°
2026-05-07 11:17 29.82736 -14.10437 43066 ft 535 kts 28°
2026-05-07 11:18 29.88911 -14.05661 43063 ft 535 kts 28°
2026-05-07 11:18 29.95094 -14.00873 43063 ft 535 kts 28°
2026-05-07 11:19 30.01238 -13.96107 43065 ft 535 kts 28°
2026-05-07 11:19 30.07418 -13.91307 43065 ft 535 kts 28°
2026-05-07 11:20 30.13597 -13.86498 43064 ft 535 kts 28°
2026-05-07 11:20 30.19768 -13.81688 43062 ft 534 kts 29°
2026-05-07 11:21 30.25937 -13.76875 43054 ft 536 kts 29°
2026-05-07 11:21 30.32121 -13.72040 43059 ft 536 kts 29°
2026-05-07 11:22 30.38299 -13.67204 43057 ft 536 kts 29°
2026-05-07 11:22 30.44469 -13.62366 43056 ft 536 kts 29°
2026-05-07 11:23 30.50645 -13.57515 43057 ft 536 kts 29°
2026-05-07 11:23 30.56815 -13.52620 43058 ft 539 kts 30°
2026-05-07 11:24 30.62962 -13.47714 43059 ft 537 kts 29°
2026-05-07 11:24 30.69148 -13.42794 43059 ft 537 kts 29°
2026-05-07 11:25 30.75304 -13.37870 43059 ft 537 kts 29°
2026-05-07 11:25 30.81465 -13.32947 43059 ft 537 kts 29°
2026-05-07 11:26 30.87629 -13.28007 43051 ft 538 kts 29°
2026-05-07 11:26 30.93787 -13.23071 43051 ft 538 kts 29°
2026-05-07 11:27 30.99977 -13.18178 43052 ft 538 kts 29°
2026-05-07 11:27 31.06154 -13.13252 43053 ft 538 kts 29°
2026-05-07 11:28 31.12330 -13.08335 43049 ft 537 kts 29°
2026-05-07 11:28 31.18515 -13.03398 43048 ft 539 kts 29°
2026-05-07 11:29 31.24700 -12.98451 43040 ft 539 kts 29°
2026-05-07 11:29 31.30844 -12.93533 43043 ft 539 kts 29°
2026-05-07 11:30 31.37023 -12.88576 43043 ft 539 kts 29°
2026-05-07 11:30 31.43206 -12.83610 43065 ft 539 kts 29°
2026-05-07 11:31 31.49392 -12.78632 43048 ft 539 kts 30°
2026-05-07 11:31 31.55575 -12.73649 43044 ft 539 kts 30°
2026-05-07 11:32 31.64844 -12.66164 43047 ft 539 kts 30°
2026-05-07 11:33 31.71014 -12.61170 43045 ft 539 kts 30°
2026-05-07 11:33 31.77197 -12.56158 43049 ft 540 kts 30°
2026-05-07 11:34 31.83376 -12.51141 43040 ft 540 kts 30°
2026-05-07 11:34 31.89560 -12.46112 43046 ft 540 kts 30°
2026-05-07 11:35 31.95740 -12.41078 43035 ft 540 kts 30°
2026-05-07 11:35 32.01908 -12.36054 43055 ft 539 kts 30°
2026-05-07 11:36 32.08050 -12.31062 43032 ft 540 kts 30°
2026-05-07 11:36 32.14229 -12.26018 43030 ft 540 kts 30°
2026-05-07 11:37 32.20409 -12.20973 43031 ft 540 kts 30°
2026-05-07 11:37 32.26587 -12.15916 43032 ft 540 kts 30°
2026-05-07 11:38 32.32768 -12.10852 43027 ft 542 kts 30°
2026-05-07 11:38 32.38949 -12.05775 43029 ft 541 kts 30°
2026-05-07 11:39 32.45128 -12.00694 43019 ft 540 kts 30°
2026-05-07 11:39 32.51300 -11.95610 43019 ft 540 kts 30°
2026-05-07 11:40 32.57470 -11.90518 43019 ft 540 kts 30°
2026-05-07 11:40 32.63601 -11.85451 43026 ft 541 kts 30°
2026-05-07 11:41 32.68773 -11.81168 43026 ft 541 kts 30°
2026-05-07 11:41 32.74952 -11.76045 43024 ft 541 kts 30°
2026-05-07 11:42 32.81118 -11.70923 43023 ft 541 kts 30°
2026-05-07 11:42 32.87293 -11.65784 43023 ft 541 kts 30°
2026-05-07 11:43 32.93461 -11.60643 43021 ft 541 kts 30°
2026-05-07 11:43 32.99589 -11.55527 43019 ft 542 kts 30°
2026-05-07 11:44 33.05757 -11.50367 43020 ft 542 kts 30°
2026-05-07 11:44 33.11924 -11.45200 43020 ft 542 kts 30°
2026-05-07 11:45 33.18091 -11.40023 43018 ft 542 kts 30°
2026-05-07 11:45 33.24244 -11.34807 43018 ft 542 kts 31°
2026-05-07 11:46 33.30396 -11.29587 43022 ft 542 kts 31°
2026-05-07 11:46 33.36538 -11.24369 43018 ft 542 kts 31°
2026-05-07 11:47 33.42671 -11.19145 43019 ft 542 kts 31°
2026-05-07 11:47 33.48816 -11.13905 43017 ft 542 kts 31°
2026-05-07 11:48 33.54961 -11.08651 43017 ft 542 kts 31°
2026-05-07 11:48 33.61099 -11.03399 43017 ft 542 kts 31°
2026-05-07 11:49 33.67237 -10.98132 43001 ft 542 kts 31°
2026-05-07 11:49 33.73081 -10.92324 43045 ft 548 kts 38°
2026-05-07 11:50 33.78700 -10.86117 43015 ft 548 kts 38°
2026-05-07 11:50 33.84353 -10.80057 43013 ft 548 kts 38°
2026-05-07 11:51 33.89998 -10.73881 43013 ft 548 kts 38°
2026-05-07 11:51 33.95594 -10.67795 43010 ft 523 kts 38°
2026-05-07 11:51 33.98244 -10.64908 43802 ft 503 kts 38°
2026-05-07 11:52 34.00797 -10.62114 44570 ft 494 kts 38°
2026-05-07 11:52 34.03355 -10.59325 44901 ft 496 kts 38°
2026-05-07 11:52 34.05914 -10.56534 45256 ft 496 kts 38°
2026-05-07 11:52 34.08466 -10.53738 45609 ft 496 kts 38°
2026-05-07 11:53 34.11017 -10.50940 45931 ft 495 kts 38°
2026-05-07 11:53 34.13569 -10.48143 46232 ft 495 kts 38°
2026-05-07 11:53 34.16121 -10.45346 46522 ft 495 kts 38°
2026-05-07 11:53 34.18671 -10.42545 46794 ft 495 kts 38°
2026-05-07 11:54 34.21219 -10.39743 47020 ft 496 kts 38°
2026-05-07 11:54 34.26394 -10.34054 47001 ft 509 kts 38°
2026-05-07 11:55 34.31719 -10.28180 47012 ft 521 kts 38°
2026-05-07 11:55 34.37083 -10.22258 47007 ft 531 kts 38°
2026-05-07 11:56 34.42564 -10.16190 47014 ft 535 kts 38°
2026-05-07 11:56 34.48055 -10.10104 47009 ft 534 kts 38°
2026-05-07 11:57 34.53538 -10.04015 47007 ft 534 kts 38°
2026-05-07 11:57 34.59018 -9.97918 47022 ft 535 kts 39°
2026-05-07 11:58 34.64490 -9.91817 46994 ft 533 kts 39°
2026-05-07 11:58 34.69957 -9.85713 46995 ft 534 kts 39°
2026-05-07 11:59 34.75425 -9.79594 47000 ft 534 kts 38°
2026-05-07 11:59 34.80892 -9.73466 47000 ft 534 kts 38°
2026-05-07 12:00 34.86356 -9.67330 47019 ft 535 kts 39°
2026-05-07 12:00 34.91818 -9.61183 46999 ft 534 kts 39°
2026-05-07 12:01 34.97279 -9.55027 46999 ft 534 kts 39°
2026-05-07 12:01 35.02730 -9.48868 46996 ft 534 kts 39°
2026-05-07 12:02 35.08183 -9.42698 46993 ft 534 kts 38°
2026-05-07 12:02 35.13626 -9.36527 46990 ft 534 kts 38°
2026-05-07 12:03 35.19065 -9.30347 46987 ft 533 kts 38°
2026-05-07 12:03 35.24501 -9.24162 46988 ft 534 kts 39°
2026-05-07 12:04 35.29932 -9.17966 46986 ft 534 kts 39°
2026-05-07 12:04 35.35360 -9.11765 46986 ft 534 kts 39°
2026-05-07 12:05 35.40742 -9.05603 46981 ft 533 kts 39°
2026-05-07 12:05 35.46148 -8.99402 46973 ft 531 kts 39°
2026-05-07 12:06 35.51560 -8.93184 46979 ft 534 kts 39°
2026-05-07 12:06 35.56983 -8.86938 46976 ft 534 kts 39°
2026-05-07 12:07 35.62392 -8.80699 46980 ft 534 kts 39°
2026-05-07 12:07 35.67805 -8.74441 46973 ft 534 kts 39°
2026-05-07 12:08 35.73211 -8.68180 46980 ft 533 kts 39°
2026-05-07 12:08 35.78610 -8.61915 46970 ft 533 kts 39°
2026-05-07 12:09 35.84000 -8.55647 46968 ft 533 kts 39°
2026-05-07 12:09 35.89393 -8.49365 46968 ft 533 kts 39°
2026-05-07 12:10 35.94782 -8.43074 46971 ft 533 kts 39°
2026-05-07 12:10 36.00160 -8.36782 46968 ft 532 kts 39°
2026-05-07 12:11 36.05527 -8.30493 46970 ft 531 kts 39°
2026-05-07 12:11 36.10884 -8.24203 46970 ft 531 kts 39°
2026-05-07 12:12 36.16235 -8.17906 46968 ft 531 kts 39°
2026-05-07 12:12 36.21554 -8.11636 46965 ft 531 kts 39°
2026-05-07 12:13 36.26902 -8.05319 46955 ft 530 kts 39°
2026-05-07 12:13 36.32242 -7.99000 46952 ft 531 kts 40°
2026-05-07 12:14 36.37581 -7.92666 46950 ft 531 kts 40°
2026-05-07 12:14 36.42919 -7.86324 46947 ft 531 kts 40°
2026-05-07 12:15 36.48251 -7.79975 46946 ft 531 kts 40°
2026-05-07 12:15 36.53574 -7.73623 46944 ft 530 kts 40°
2026-05-07 12:16 36.58891 -7.67267 46944 ft 530 kts 40°
2026-05-07 12:16 36.64205 -7.60901 46945 ft 530 kts 40°
2026-05-07 12:17 36.69513 -7.54529 46943 ft 530 kts 40°
2026-05-07 12:17 36.74815 -7.48152 46940 ft 530 kts 40°
2026-05-07 12:18 36.80344 -7.42138 46933 ft 524 kts 34°
2026-05-07 12:18 36.85963 -7.36296 46930 ft 528 kts 38°
2026-05-07 12:19 36.91462 -7.30230 46930 ft 526 kts 36°
2026-05-07 12:19 36.97066 -7.24331 46930 ft 527 kts 37°
2026-05-07 12:20 37.02585 -7.18284 46944 ft 527 kts 38°
2026-05-07 12:20 37.08166 -7.12324 46926 ft 527 kts 38°
2026-05-07 12:21 37.13692 -7.06297 46917 ft 527 kts 38°
2026-05-07 12:21 37.19249 -7.00299 46917 ft 527 kts 38°
2026-05-07 12:22 37.24787 -6.94264 46908 ft 527 kts 38°
2026-05-07 12:22 37.30333 -6.88234 46914 ft 528 kts 38°
2026-05-07 12:23 37.35871 -6.82185 46899 ft 529 kts 38°
2026-05-07 12:23 37.41432 -6.76108 46901 ft 529 kts 38°
2026-05-07 12:24 37.46948 -6.70064 46898 ft 529 kts 39°
2026-05-07 12:24 37.52499 -6.63970 46897 ft 529 kts 39°
2026-05-07 12:25 37.58054 -6.57859 46895 ft 530 kts 39°
2026-05-07 12:25 37.63597 -6.51748 46974 ft 531 kts 39°
2026-05-07 12:26 37.69166 -6.45597 46978 ft 532 kts 39°
2026-05-07 12:26 37.74740 -6.39427 46977 ft 534 kts 39°
2026-05-07 12:27 37.80315 -6.33243 46980 ft 533 kts 39°
2026-05-07 12:27 37.85880 -6.27056 46975 ft 533 kts 39°
2026-05-07 12:28 37.90511 -6.21899 46978 ft 533 kts 39°
2026-05-07 12:28 37.96074 -6.15691 46976 ft 533 kts 39°
2026-05-07 12:29 38.01636 -6.09472 46976 ft 533 kts 39°
2026-05-07 12:29 38.07197 -6.03241 46974 ft 534 kts 39°
2026-05-07 12:30 38.12752 -5.97002 46978 ft 533 kts 39°
2026-05-07 12:30 38.18310 -5.90749 46975 ft 533 kts 39°
2026-05-07 12:31 38.23861 -5.84488 46972 ft 533 kts 39°
2026-05-07 12:31 38.29409 -5.78218 46969 ft 533 kts 39°
2026-05-07 12:32 38.34951 -5.71942 46967 ft 534 kts 39°
2026-05-07 12:32 38.40517 -5.65625 46962 ft 537 kts 39°
2026-05-07 12:33 38.48866 -5.56123 46965 ft 536 kts 39°
2026-05-07 12:33 38.54428 -5.49778 46963 ft 536 kts 39°
2026-05-07 12:34 38.59975 -5.43435 46960 ft 535 kts 40°
2026-05-07 12:34 38.65518 -5.37082 46964 ft 536 kts 40°
2026-05-07 12:35 38.71063 -5.30713 46960 ft 536 kts 40°
2026-05-07 12:35 38.76608 -5.24331 46955 ft 536 kts 40°
2026-05-07 12:36 38.82140 -5.17949 46955 ft 533 kts 40°
2026-05-07 12:36 38.87655 -5.11575 46957 ft 534 kts 40°
2026-05-07 12:37 38.93175 -5.05179 46958 ft 534 kts 40°
2026-05-07 12:37 38.98652 -4.98820 46960 ft 534 kts 40°
2026-05-07 12:38 39.04161 -4.92409 46965 ft 532 kts 40°
2026-05-07 12:38 39.09640 -4.86020 46965 ft 532 kts 40°
2026-05-07 12:39 39.15123 -4.79611 46966 ft 532 kts 40°
2026-05-07 12:39 39.20965 -4.73821 46952 ft 528 kts 27°
2026-05-07 12:40 39.27674 -4.70076 46986 ft 525 kts 17°
2026-05-07 12:40 39.34493 -4.66912 46327 ft 514 kts 20°
2026-05-07 12:41 39.37738 -4.65060 45671 ft 505 kts 22°
2026-05-07 12:41 39.40929 -4.63264 45026 ft 496 kts 20°
2026-05-07 12:41 39.44114 -4.61667 44371 ft 486 kts 18°
2026-05-07 12:41 39.47244 -4.60117 43744 ft 477 kts 19°
2026-05-07 12:42 39.50290 -4.58487 43140 ft 470 kts 20°
2026-05-07 12:42 39.53287 -4.56848 42528 ft 466 kts 20°
2026-05-07 12:42 39.56293 -4.55272 41929 ft 467 kts 19°
2026-05-07 12:42 39.59322 -4.53717 41305 ft 472 kts 19°
2026-05-07 12:43 39.62382 -4.52107 40676 ft 477 kts 20°
2026-05-07 12:43 39.65452 -4.50460 40040 ft 478 kts 20°
2026-05-07 12:43 39.68530 -4.48825 39408 ft 478 kts 20°
2026-05-07 12:43 39.71610 -4.47209 38781 ft 477 kts 19°
2026-05-07 12:44 39.74686 -4.45588 38085 ft 476 kts 20°
2026-05-07 12:44 39.77739 -4.43961 37466 ft 473 kts 20°
2026-05-07 12:44 39.80778 -4.42341 36846 ft 472 kts 19°
2026-05-07 12:44 39.83817 -4.40732 36224 ft 472 kts 19°
2026-05-07 12:45 39.86861 -4.39118 35593 ft 472 kts 19°
2026-05-07 12:45 39.89900 -4.37498 34967 ft 472 kts 19°
2026-05-07 12:45 39.92935 -4.35877 34340 ft 471 kts 19°
2026-05-07 12:45 39.95963 -4.34275 33839 ft 467 kts 18°
2026-05-07 12:46 39.99102 -4.33243 33194 ft 464 kts
2026-05-07 12:46 40.02303 -4.32566 32580 ft 469 kts
2026-05-07 12:46 40.05536 -4.31874 31964 ft 472 kts
2026-05-07 12:46 40.08777 -4.31122 31333 ft 474 kts
2026-05-07 12:47 40.11905 -4.29640 30647 ft 481 kts 22°
2026-05-07 12:47 40.14950 -4.27828 30090 ft 481 kts 24°
2026-05-07 12:47 40.17984 -4.26034 29462 ft 476 kts 23°
2026-05-07 12:47 40.21015 -4.24331 28810 ft 472 kts 22°
2026-05-07 12:48 40.24019 -4.22650 28180 ft 467 kts 23°
2026-05-07 12:48 40.26977 -4.20935 27580 ft 463 kts 24°
2026-05-07 12:48 40.29865 -4.19245 26993 ft 459 kts 24°
2026-05-07 12:48 40.32772 -4.17576 26423 ft 455 kts 23°
2026-05-07 12:49 40.35663 -4.15930 25861 ft 451 kts 23°
2026-05-07 12:49 40.38524 -4.14281 25318 ft 447 kts 24°
2026-05-07 12:49 40.41361 -4.12631 24795 ft 445 kts 24°
2026-05-07 12:49 40.44208 -4.10984 23919 ft 447 kts 24°
2026-05-07 12:50 40.47050 -4.09347 22758 ft 443 kts 24°
2026-05-07 12:50 40.49834 -4.07738 21568 ft 432 kts 24°
2026-05-07 12:50 40.52542 -4.06166 20403 ft 421 kts 24°
2026-05-07 12:50 40.55196 -4.04625 19630 ft 407 kts 24°
2026-05-07 12:51 40.57755 -4.03141 19233 ft 406 kts 24°
2026-05-07 12:51 40.60353 -4.01634 18702 ft 407 kts 24°
2026-05-07 12:51 40.62934 -4.00132 18160 ft 406 kts 24°
2026-05-07 12:51 40.65511 -3.98633 17599 ft 402 kts 24°
2026-05-07 12:52 40.68059 -3.97149 17074 ft 400 kts 24°
2026-05-07 12:52 40.70604 -3.95667 16549 ft 399 kts 24°
2026-05-07 12:52 40.73120 -3.94199 16024 ft 390 kts 24°
2026-05-07 12:52 40.75472 -3.92825 15511 ft 341 kts 24°
2026-05-07 12:53 40.77520 -3.91627 15142 ft 305 kts 23°
2026-05-07 12:53 40.79412 -3.90522 14748 ft 293 kts 23°
2026-05-07 12:53 40.81271 -3.89437 14362 ft 290 kts 23°
2026-05-07 12:53 40.83094 -3.88370 14001 ft 283 kts 23°
2026-05-07 12:54 40.84891 -3.87316 13633 ft 283 kts 24°
2026-05-07 12:54 40.86686 -3.86264 13235 ft 280 kts 24°
2026-05-07 12:54 40.88460 -3.85225 12865 ft 279 kts 24°
2026-05-07 12:54 40.90230 -3.84187 12499 ft 279 kts 24°
2026-05-07 12:55 40.91995 -3.83150 12133 ft 276 kts 24°
2026-05-07 12:55 40.93738 -3.82126 11762 ft 275 kts 24°
2026-05-07 12:55 40.95479 -3.81092 11416 ft 274 kts 26°
2026-05-07 12:55 40.96946 -3.79550 10970 ft 271 kts 56°
2026-05-07 12:56 40.97651 -3.77352 10972 ft 254 kts 82°
2026-05-07 12:56 40.97668 -3.75064 11016 ft 247 kts 98°
2026-05-07 12:56 40.97541 -3.72795 11021 ft 247 kts 98°
2026-05-07 12:56 40.97422 -3.70499 10888 ft 253 kts 97°
2026-05-07 12:57 40.97307 -3.68184 10658 ft 258 kts 97°
2026-05-07 12:57 40.97040 -3.65865 10362 ft 254 kts 111°
2026-05-07 12:57 40.96458 -3.63658 10151 ft 254 kts 112°
2026-05-07 12:57 40.95867 -3.61450 9895 ft 253 kts 112°
2026-05-07 12:58 40.95079 -3.59406 9551 ft 249 kts 134°
2026-05-07 12:58 40.93713 -3.58101 9306 ft 243 kts 159°
2026-05-07 12:58 40.92085 -3.57707 9097 ft 234 kts 180°
2026-05-07 12:58 40.90441 -3.57703 8904 ft 239 kts 180°
2026-05-07 12:59 40.88779 -3.57694 8671 ft 238 kts 180°
2026-05-07 12:59 40.87166 -3.57681 8424 ft 228 kts 180°
2026-05-07 12:59 40.85579 -3.57671 8183 ft 218 kts 180°
2026-05-07 12:59 40.84103 -3.57662 7957 ft 214 kts 180°
2026-05-07 13:00 40.82632 -3.57690 7826 ft 208 kts 181°
2026-05-07 13:00 40.81157 -3.57705 7611 ft 212 kts 180°
2026-05-07 13:00 40.79696 -3.57695 7334 ft 210 kts 180°
2026-05-07 13:00 40.78214 -3.57682 7059 ft 209 kts 179°
2026-05-07 13:01 40.76738 -3.57671 6788 ft 208 kts 179°
2026-05-07 13:01 40.75295 -3.57660 6509 ft 207 kts 179°
2026-05-07 13:01 40.73851 -3.57650 6239 ft 207 kts 179°
2026-05-07 13:01 40.72456 -3.57639 5957 ft 185 kts 179°
2026-05-07 13:02 40.71208 -3.57631 5712 ft 178 kts 178°
2026-05-07 13:02 40.69966 -3.57622 5481 ft 180 kts 178°
2026-05-07 13:02 40.68726 -3.57612 5252 ft 174 kts 178°
2026-05-07 13:02 40.67640 -3.57606 5007 ft 138 kts 178°
2026-05-07 13:03 40.66757 -3.57601 4768 ft 121 kts 178°
2026-05-07 13:03 40.65934 -3.57595 4598 ft 117 kts 178°
2026-05-07 13:03 40.65094 -3.57588 4549 ft 127 kts 178°
2026-05-07 13:03 40.64212 -3.57581 4381 ft 124 kts 178°
2026-05-07 13:04 40.63362 -3.57574 4220 ft 122 kts 176°
2026-05-07 13:04 40.62507 -3.57563 4043 ft 122 kts 176°
2026-05-07 13:04 40.61665 -3.57556 3901 ft 123 kts 176°
2026-05-07 13:04 40.60814 -3.57549 3730 ft 123 kts 177°
2026-05-07 13:05 40.59966 -3.57542 3565 ft 123 kts 178°
2026-05-07 13:05 40.59087 -3.57535 3399 ft 126 kts 179°
2026-05-07 13:05 40.58208 -3.57528 3234 ft 127 kts 179°
2026-05-07 13:05 40.57320 -3.57521 3068 ft 128 kts 179°
2026-05-07 13:06 40.56446 -3.57514 2892 ft 126 kts 179°
2026-05-07 13:06 40.55565 -3.57507 2721 ft 124 kts 178°
2026-05-07 13:06 40.54717 -3.57500 2545 ft 120 kts 176°
2026-05-07 13:06 40.53909 -3.57490 2375 ft 118 kts 174°
2026-05-07 13:07 40.53105 -3.57491 2221 ft 113 kts 173°
2026-05-07 13:07 40.52325 -3.57475 2094 ft 111 kts 173°
2026-05-07 13:07 40.51570 -3.57476 2003 ft 107 kts 174°
2026-05-07 13:07 40.50843 -3.57460 1993 ft 99 kts 180°
2026-05-07 13:08 40.50343 -3.57517 1987 ft 42 kts 196°
2026-05-07 13:08 40.50225 -3.57604 1985 ft 7 kts 204°
2026-05-07 13:08 40.50206 -3.57618 1983 ft 9 kts 211°
2026-05-07 13:08 40.50137 -3.57663 1984 ft 16 kts 194°
2026-05-07 13:09 40.50041 -3.57683 1982 ft 17 kts 182°
2026-05-07 13:09 40.49910 -3.57683 1982 ft 14 kts 181°
2026-05-07 13:09 40.49815 -3.57689 1983 ft 8 kts 185°
2026-05-07 13:09 40.49751 -3.57735 1987 ft 13 kts 246°
2026-05-07 13:10 40.49732 -3.57866 1993 ft 17 kts 264°
2026-05-07 13:10 40.49737 -3.58014 1998 ft 17 kts 271°
2026-05-07 13:10 40.49738 -3.58050 2000 ft 1 kts 269°
2026-05-07 13:10 40.49737 -3.58145 2003 ft 18 kts 269°
2026-05-07 13:11 40.49737 -3.58279 2008 ft 6 kts 276°
2026-05-07 13:11 40.49737 -3.58296 2008 ft 3 kts 269°
2026-05-07 13:11 40.49737 -3.58356 2010 ft 10 kts 270°
2026-05-07 13:11 40.49735 -3.58456 2014 ft 10 kts 268°
2026-05-07 13:12 40.49735 -3.58538 2017 ft 11 kts 272°
2026-05-07 13:12 40.49736 -3.58678 2019 ft 19 kts 266°
2026-05-07 13:12 40.49741 -3.58835 2018 ft 13 kts 290°
2026-05-07 13:12 40.49714 -3.58894 2019 ft 3 kts 191°
2026-05-07 13:13 40.49705 -3.58895 2019 ft 0 kts 179°